Weather History for KSFM - May, 2014

Change the Weather History Date:

Tuesday, May 13, 2014

  Actual Average Record
Temperature  
Mean Temperature 44 °F -  
Max Temperature 51 °F 62 °F 82 °F (2012)
Min Temperature 37 °F 39 °F 23 °F (2005)
Degree Days  
Heating Degree Days 21    
Moisture  
Dew Point 37 °F    
Average Humidity 69    
Maximum Humidity 93    
Minimum Humidity 54    
Precipitation  
Precipitation 0.00 in - - ()
Sea Level Pressure  
Sea Level Pressure 30.29 in    
Wind  
Wind Speed 7 mph (East)    
Max Wind Speed 12 mph    
Max Gust Speed -    
Visibility 10 miles    
Events      
Averages and records for this station are not official NWS values.
T = Trace of Precipitation, MM = Missing Value Source: NWS Daily Summary

Daily Weather History Graph

Daily Weather History Graph

Search for Another Location

Airport or City:

Trip Planner

Search our weather history database for the weather conditions in past years. The results will help you decide how hot, cold, wet, or windy it might be!

Date:

Astronomy

May. 13, 2014 Rise Set
Actual Time 5:20 AM EDT 7:58 PM EDT
Civil Twilight 4:48 AM EDT 8:31 PM EDT
Nautical Twilight 4:07 AM EDT 9:12 PM EDT
Astronomical Twilight 3:20 AM EDT 9:59 PM EDT
Moon 6:54 PM EDT (5/13) 4:38 AM EDT (5/13)
Length of Visible Light 15h 43m
Length of Day
14h 37m
Waxing Gibbous, 98% of the Moon is Illuminated
May 13
Waxing Gibbous
May 14
Full
May 21
Last Quarter
May 28
New
Jun 5
First Quarter

Hourly Weather History & Observations

Time (EDT) Temp. Windchill Dew Point Humidity Pressure Visibility Wind Dir Wind Speed Gust Speed Precip Events Conditions
12:15 AM 48.2 °F - 39.2 °F 71% 30.18 in 10.0 mi ENE 10.4 mph - N/A   Overcast
12:35 AM 48.2 °F - 39.2 °F 71% 30.19 in 10.0 mi ENE 11.5 mph - N/A   Overcast
12:55 AM 48.2 °F - 39.2 °F 71% 30.19 in 10.0 mi ENE 9.2 mph - N/A   Overcast
1:15 AM 48.2 °F - 39.2 °F 71% 30.19 in 10.0 mi ENE 9.2 mph - N/A   Overcast
1:35 AM 48.2 °F - 39.2 °F 71% 30.20 in 10.0 mi NE 10.4 mph - N/A   Overcast
2:15 AM 48.2 °F - 39.2 °F 71% 30.20 in 10.0 mi NE 10.4 mph - N/A   Overcast
2:35 AM 48.2 °F - 39.2 °F 71% 30.20 in 10.0 mi NE 11.5 mph - N/A   Overcast
2:55 AM 48.2 °F - 39.2 °F 71% 30.20 in 10.0 mi NE 9.2 mph - N/A   Overcast
3:35 AM 48.2 °F - 41.0 °F 76% 30.21 in 10.0 mi ENE 5.8 mph - N/A   Overcast
3:55 AM 48.2 °F - 39.2 °F 71% 30.22 in 10.0 mi ENE 4.6 mph - N/A   Overcast
4:15 AM 48.2 °F - 39.2 °F 71% 30.22 in 10.0 mi East 5.8 mph - N/A   Overcast
4:35 AM 48.2 °F - 39.2 °F 71% 30.23 in 10.0 mi ENE 5.8 mph - N/A   Mostly Cloudy
4:55 AM 48.2 °F - 39.2 °F 71% 30.24 in 10.0 mi East 4.6 mph - N/A   Mostly Cloudy
5:15 AM 48.2 °F - 39.2 °F 71% 30.25 in 10.0 mi East 4.6 mph - N/A   Overcast
5:35 AM 48.2 °F - 39.2 °F 71% 30.25 in 10.0 mi East 4.6 mph - N/A   Overcast
5:55 AM 46.4 °F 42.9 °F 37.4 °F 71% 30.26 in 10.0 mi East 6.9 mph - N/A   Mostly Cloudy
6:15 AM 46.4 °F 44.3 °F 39.2 °F 76% 30.27 in 10.0 mi ENE 4.6 mph - N/A   Partly Cloudy
6:35 AM 46.4 °F 45.2 °F 41.0 °F 81% 30.27 in 10.0 mi East 3.5 mph - N/A   Partly Cloudy
6:55 AM 46.4 °F 45.2 °F 39.2 °F 76% 30.28 in 10.0 mi East 3.5 mph - N/A   Scattered Clouds
7:15 AM 48.2 °F - 39.2 °F 71% 30.28 in 10.0 mi ESE 4.6 mph - N/A   Scattered Clouds
7:35 AM 48.2 °F - 37.4 °F 66% 30.27 in 10.0 mi ENE 5.8 mph - N/A   Mostly Cloudy
7:55 AM 48.2 °F - 39.2 °F 71% 30.29 in 10.0 mi East 6.9 mph - N/A   Overcast
8:15 AM 48.2 °F - 41.0 °F 76% 30.29 in 10.0 mi ENE 6.9 mph - N/A   Overcast
9:15 AM 50.0 °F - 35.6 °F 58% 30.30 in 10.0 mi ENE 10.4 mph - N/A   Overcast
9:35 AM 51.8 °F - 37.4 °F 58% 30.30 in 10.0 mi ENE 11.5 mph - N/A   Mostly Cloudy
9:55 AM 50.0 °F - 35.6 °F 58% 30.31 in 10.0 mi NNE 8.1 mph - N/A   Mostly Cloudy
10:15 AM 50.0 °F - 33.8 °F 54% 30.31 in 10.0 mi ENE 9.2 mph - N/A   Overcast
10:55 AM 50.0 °F - 35.6 °F 58% 30.32 in 10.0 mi East 5.8 mph - N/A   Overcast
12:35 PM 48.2 °F - 39.2 °F 71% 30.33 in 10.0 mi ESE 4.6 mph - N/A   Overcast
12:55 PM 50.0 °F - 37.4 °F 62% 30.33 in 10.0 mi SE 5.8 mph - N/A   Overcast
1:35 PM 51.8 °F - 37.4 °F 58% 30.33 in 10.0 mi Calm Calm - N/A   Overcast
1:55 PM 51.8 °F - 37.4 °F 58% 30.33 in 10.0 mi ESE 5.8 mph - N/A   Mostly Cloudy
2:15 PM 51.8 °F - 37.4 °F 58% 30.33 in 10.0 mi SE 4.6 mph - N/A   Scattered Clouds
2:35 PM 50.0 °F - 37.4 °F 62% 30.33 in 10.0 mi SE 5.8 mph - N/A   Mostly Cloudy
2:55 PM 51.8 °F - 37.4 °F 58% 30.32 in 10.0 mi South 5.8 mph - N/A   Mostly Cloudy
3:15 PM 51.8 °F - 37.4 °F 58% 30.32 in 10.0 mi SE 5.8 mph - N/A   Mostly Cloudy
3:35 PM 50.0 °F - 37.4 °F 62% 30.32 in 10.0 mi SE 5.8 mph - N/A   Mostly Cloudy
3:55 PM 51.8 °F - 37.4 °F 58% 30.32 in 10.0 mi SSE 4.6 mph - N/A   Overcast
4:15 PM 50.0 °F - 37.4 °F 62% 30.32 in 10.0 mi South 4.6 mph - N/A   Overcast
4:35 PM 51.8 °F - 37.4 °F 58% 30.32 in 10.0 mi SSE 4.6 mph - N/A   Overcast
4:55 PM 51.8 °F - 37.4 °F 58% 30.32 in 10.0 mi SE 3.5 mph - N/A   Scattered Clouds
5:15 PM 50.0 °F - 37.4 °F 62% 30.32 in 10.0 mi SSE 4.6 mph - N/A   Clear
5:35 PM 50.0 °F - 35.6 °F 58% 30.33 in 10.0 mi South 4.6 mph - N/A   Clear
5:55 PM 50.0 °F - 35.6 °F 58% 30.32 in 10.0 mi SE 5.8 mph - N/A   Clear
6:15 PM 48.2 °F - 33.8 °F 58% 30.32 in 10.0 mi ESE 3.5 mph - N/A   Clear
6:35 PM 48.2 °F - 35.6 °F 62% 30.32 in 10.0 mi ESE 3.5 mph - N/A   Clear
6:55 PM 48.2 °F - 33.8 °F 58% 30.31 in 10.0 mi ESE 5.8 mph - N/A   Clear
7:15 PM 48.2 °F - 33.8 °F 58% 30.30 in 10.0 mi ESE 4.6 mph - N/A   Clear
7:35 PM 46.4 °F 45.2 °F 35.6 °F 66% 30.31 in 10.0 mi SE 3.5 mph - N/A   Clear
7:55 PM 46.4 °F - 33.8 °F 62% 30.31 in 10.0 mi Calm Calm - N/A   Clear
8:15 PM 44.6 °F 43.1 °F 35.6 °F 71% 30.31 in 10.0 mi SE 3.5 mph - N/A   Clear
8:35 PM 44.6 °F - 35.6 °F 71% 30.32 in 10.0 mi Calm Calm - N/A   Clear
8:55 PM 44.6 °F - 35.6 °F 71% 30.33 in 10.0 mi Calm Calm - N/A   Clear
9:15 PM 42.8 °F - 35.6 °F 76% 30.34 in 10.0 mi Calm Calm - N/A   Clear
9:35 PM 39.2 °F - 35.6 °F 87% 30.34 in 10.0 mi Calm Calm - N/A   Clear
9:55 PM 39.2 °F - 35.6 °F 87% 30.34 in 10.0 mi Calm Calm - N/A   Clear
10:15 PM 39.2 °F - 37.4 °F 93% 30.33 in 10.0 mi Calm Calm - N/A   Clear
10:55 PM 39.2 °F - 35.6 °F 87% 30.32 in 10.0 mi Calm Calm - N/A   Clear
11:15 PM 37.4 °F - 35.6 °F 93% 30.32 in 10.0 mi Calm Calm - N/A   Clear
11:35 PM 39.2 °F 37.0 °F 35.6 °F 87% 30.31 in 10.0 mi WSW 3.5 mph - N/A   Mostly Cloudy
11:55 PM 39.2 °F - 35.6 °F 87% 30.32 in 10.0 mi Calm Calm - N/A   Overcast